Location: Caltech
(34.1382°N, 118.1253°W)
Time: 00:01:28
(UTC-07:00)

Cosmos 1833 - Visible Passes

Search period start: 03 September 2014 00:00
Search period end: 13 September 2014 00:00
Orbit: 843 x 856 km, 70.9° (Epoch: 03 September)

Date Brightness Start Highest point End Pass type
(mag) Time Alt. Az. Time Alt. Az. Time Alt. Az.
03 Sep 6.8 23:26:42 10° NNW 23:27:32 14° NNW 23:27:32 14° NNW visible
04 Sep 6.7 23:14:04 10° NNW 23:15:05 16° N 23:15:05 16° N visible
05 Sep 6.6 23:01:25 10° NNW 23:02:40 17° N 23:02:40 17° N visible
06 Sep 6.5 22:48:47 10° NNW 22:50:16 19° N 22:50:16 19° N visible
07 Sep 6.3 22:36:09 10° NNW 22:37:54 20° N 22:37:54 20° N visible
08 Sep 6.1 22:23:31 10° NNW 22:25:35 23° N 22:25:35 23° N visible
09 Sep 5.9 22:10:52 10° NNW 22:13:17 26° N 22:13:17 26° N visible
10 Sep 5.7 21:58:14 10° NNW 22:01:02 29° N 22:01:02 29° N visible
11 Sep 5.5 21:45:36 10° NNW 21:48:49 33° N 21:48:49 33° N visible
12 Sep 5.2 21:32:58 10° NNW 21:36:38 38° N 21:36:38 38° N visible
